AirNav   Duncan Aviation - Near you to keep you flying
 
 527 users online  

61TA Eagle Landing Airport
Avinger, Texas, USA

GOING TO AVINGER?


FAA INFORMATION EFFECTIVE 02 DECEMBER 2021

Location

FAA Identifier: 61TA
Lat/Long: 32-53-02.4790N 094-36-27.7300W
32-53.041317N 094-36.462167W
32.8840219,-94.6077028
(estimated)
Elevation: 380 ft. / 116 m (estimated)
Variation: 05E (1985)
From city: 3 miles SW of AVINGER, TX
Time zone: UTC -6 (UTC -5 during Daylight Saving Time)
Zip code: 75630

Airport Operations

Airport use: Private use. Permission required prior to landing
Activation date: 08/1982
Control tower: no
ARTCC: FORT WORTH CENTER
FSS: FORT WORTH FLIGHT SERVICE STATION
Attendance: UNATNDD
Wind indicator: yes
Segmented circle: no

Nearby radio navigation aids

VOR radial/distance  VOR name  Freq  Var
GGGr008/28.9GREGG COUNTY VORTAC112.9007E

 
NDB name  Hdg/Dist  Freq  Var  ID
ATLANTA234/24.834704EATA .- - .-
AMBASSADOR048/31.240407EABG .- -... --.

Airport Services

Runway Information

Runway 7/25

Dimensions: 4000 x 100 ft. / 1219 x 30 m
Surface: turf
RUNWAY 7  RUNWAY 25
Traffic pattern: leftleft
Obstructions: 50 ft. trees, 200 ft. from runway50 ft. trees, 200 ft. from runway

Airport Ownership and Management from official FAA records

Ownership: Privately-owned
Owner: EAGLE LANDING HOMEOWNERS ASSN
P.O. BOX 1444
HUGHES SPRINGS, TX 75656
Phone (903) 562-1500
Manager: EAGLE LANDING HOMEOWNERS ASSN
P.O. BOX 1444
HUGHES SPRINGS, TX 75656
Phone (903) 562-1500
RANDY FRAZIER 903-241-6491 AND STEVE HOWARD 903-562-1500 AND 940-453-7197.

Airport Operational Statistics

Aircraft based on the field: 3
Single engine airplanes: 3
    

Additional Remarks

+365 FT LGTD TOWER 3 MILES EAST OF ARPT.
RWY TERRAIN SLIGHTLY ROLLING WITH AN APPROX MID-POINT ELEV OF 363 FT.
24 HR PPR, CALL 903-241-6491 OR 903-777-2607.
CTN DEER & MOWING TRACTORS INVOF RWY.
FOR CD CTC FORT WORTH ARTCC AT 817-858-7584.

Instrument Procedures

There are no published instrument procedures at 61TA.

Some nearby airports with instrument procedures:

KJXI - Fox Stephens Field - Gilmer Municipal Airport (21 nm SW)
KOSA - Mount Pleasant Regional Airport (22 nm NW)
KATA - Hall-Miller Municipal Airport (25 nm NE)
KASL - Harrison County Airport (27 nm SE)
07F - Gladewater Municipal Airport (28 nm SW)
 
Loc | Ops | Rwys | IFR | FBO | Links
Com | Nav | Svcs | Stats | Notes
Area around 61TA (Eagle Landing Airport)
 
Road maps at: MapQuest Bing Google
 
Aerial photo
No photo
 
Sectional chart

 
Airport distance calculator
Flying to Eagle Landing Airport? Find the distance to fly.

From to 61TA

Sunrise and sunset
Times for 08-Dec-2021
 Local
(UTC-6)
 Zulu
(UTC)
Morning civil twilight06:4312:43
Sunrise07:1013:10
Sunset17:1123:11
Evening civil twilight17:3823:38

Current date and time
Zulu (UTC)  08-Dec-2021 06:40:48
Local (UTC-6)  08-Dec-2021 00:40:48
 
METAR
KJXI 
20nm SW 
080615Z AUTO 00000KT 10SM CLR 04/03 A3004 RMK AO2 T00430030
KOSA 
22nm NW 
080615Z AUTO 06003KT 10SM CLR 04/04 A3004 RMK AO2 T00440037
KASL 
27nm SE 
080615Z AUTO 00000KT 10SM CLR 04/03 A3005 RMK AO1 T00400030
KGGG 
31nm S 
080612Z AUTO 11005KT 10SM BKN007 06/04 A3002 RMK AO2 T00610044
TAF
KGGG 
31nm S 
080520Z 0806/0906 10006KT P6SM OVC250 TEMPO 0808/0812 BKN015 FM081200 08003KT P6SM BKN015 FM081400 09006KT P6SM BKN020 FM081800 16007KT P6SM SCT030 FM090000 14005KT P6SM BKN250
NOTAMs
Click for the latest NOTAMs
NOTAMs are issued by the DoD/FAA and will open in a separate window not controlled by AirNav.

 

 
 

Would you like to see your business listed on this page?

 If your business provides an interesting product or service to pilots, flight crews, aircraft, or users of the Eagle Landing Airport, you should consider listing it here.  To start the listing process, click on the button below
 
Add a business
 

Other Pages about Eagle Landing Airport

Update a link
 
Copyright © AirNav, LLC. All rights reserved. Privacy Policy  Contact